Location: *
(32.3300°N, 34.8500°E)
Time: 03:19:00
(UTC+00:00)

BREEZE-M DEB (TANK) - Pass Details

Date: 22 October 2019
Orbit: 285 x 20938 km, 49.3° (Epoch: 20 November)

Event Time Altitude Azimuth Distance (km) Brightness Sun altitude
Rises 02:59:33 0° 239° (WSW) 8,101 7.7 -11.2°
Reaches altitude 10° 03:07:40 10° 246° (WSW) 4,712 6.5 -9.5°
Maximum altitude 03:16:15 39° 313° (NW) 1,091 3.4 -7.7°
Drops below altitude 10° 03:19:06 10° 27° (NNE) 1,561 4.9 -7.1°
Sets 03:20:28 0° 37° (NE) 2,173 5.8 -6.8°
